Hourly Data Report for May 27, 2012

All times are specified in Local Standard Time (LST). Add 1 hour to adjust for Daylight Saving Time where and when it is observed.

LONDON A
ONTARIO

43°01'59.000" N
81°09'04.000" W
278.00 m
6144473
71623
YXU

Download Data

Hourly Data (May 2012)
Hourly Data Report for May 27, 2012
Temp Definition
°C
Dew Point Temp Definition
°C
Rel Hum Definition
%
Wind Dir Definition
10's deg

Wind Spd Definition
km/h
Visibility Definition
km
Stn Press Definition
kPa
Hmdx Definition


Wind Chill Definition


Weather Definition


TIME
00:00 Legend Double Dagger 15.2 11.2 77 5 8 10.0 98.83     LegendNANA
01:00 Legend Double Dagger 16.0 10.8 71 4 14 10.0 98.82     Mainly Clear
02:00 Legend Double Dagger 16.2 7.8 57 7 10 10.0 98.77     LegendNANA
03:00 Legend Double Dagger 15.3 7.9 61 7 8 10.0 98.76     LegendNANA
04:00 Legend Double Dagger 15.7 8.0 60 9 8 10.0 98.80     Mostly Cloudy
05:00 Legend Double Dagger 15.8 8.4 61 7 9 10.0 98.78     LegendNANA
06:00 Legend Double Dagger 16.8 7.8 55 11 14 10.0 98.80     Rain Showers
07:00 Legend Double Dagger 17.0 7.7 54 7 12 10.0 98.83     Cloudy
08:00 Legend Double Dagger 17.7 8.1 53 9 19 10.0 98.80     LegendNANA
09:00 Legend Double Dagger 19.9 8.7 48 11 15 10.0 98.79     LegendNANA
10:00 Legend Double Dagger 21.4 9.1 45 11 15 10.0 98.74     Mostly Cloudy
11:00 Legend Double Dagger 15.3 12.6 84 25 11 4.8 98.94     Thunderstorms,Rain Showers,Fog
12:00 Legend Double Dagger 15.4 14.0 91 30 22 10.0 99.09     Rain Showers
13:00 Legend Double Dagger 15.8 14.9 94 9 27 6.4 98.52     Rain Showers,Fog
14:00 Legend Double Dagger 18.5 16.3 87 19 9 10.0 98.57     LegendNANA
15:00 Legend Double Dagger 18.9 16.7 87 0 4 10.0 98.62     LegendNANA
16:00 Legend Double Dagger 19.6 16.9 84 33 19 10.0 98.76     Cloudy
17:00 Legend Double Dagger 20.0 17.1 83 33 9 10.0 98.74 25   LegendNANA
18:00 Legend Double Dagger 19.9 17.5 86 26 8 10.0 98.71     LegendNANA
19:00 Legend Double Dagger 19.4 17.4 88 15 22 10.0 98.18     Mostly Cloudy
20:00 Legend Double Dagger 19.3 16.6 84 19 17 10.0 98.11     LegendNANA
21:00 Legend Double Dagger 18.6 16.3 86 20 17 10.0 98.25     LegendNANA
22:00 Legend Double Dagger 17.6 16.0 90 16 6 10.0 98.27     Mainly Clear
23:00 Legend Double Dagger 17.2 15.7 91 18 9 10.0 98.20     LegendNANA

Notes on Data Quality.

Legend

  • E = Estimated
  • M = Missing
  • NA = Not Available
  • ‡ = Partner data that is not subject to review by the National Climate Archives
Date modified: